Pian Rosa, Italy

12:49 PM CET on February 13, 2016 (GMT +0100)
Pian Rosa

Weather History for LIMH - December, 2012

Change the Weather History Date:

Wednesday, December 12, 2012

  Actual Average Record
Temperature  
Mean Temperature 3 °F -  
Max Temperature 10 °F 18 °F 26 °F (2013)
Min Temperature -4 °F 8 °F -4 °F (2010)
Degree Days  
Heating Degree Days 62    
Moisture  
Dew Point -6 °F    
Average Humidity 58    
Maximum Humidity 78    
Minimum Humidity 31    
Precipitation  
Precipitation 0.00 in - - ()
Sea Level Pressure  
Sea Level Pressure 29.70 in    
Wind  
Wind Speed 19 mph ()    
Max Wind Speed 31 mph    
Max Gust Speed -    
Visibility 6.6 miles    
Events      
Averages and records for this station are not official NWS values.
T = Trace of Precipitation, MM = Missing Value Source: Averaged Metar Reports

Daily Weather History Graph

Daily Weather History Graph

Search for Another Location

Airport or City:

Trip Planner

Search our weather history database for the weather conditions in past years. The results will help you decide how hot, cold, wet, or windy it might be!

Date:

Astronomy

Dec. 12, 2012 Rise Set
Actual Time 8:01 AM CET 4:44 PM CET
Civil Twilight 7:27 AM CET 5:18 PM CET
Nautical Twilight 6:49 AM CET 5:56 PM CET
Astronomical Twilight 6:13 AM CET 6:32 PM CET
Moon 6:46 AM CET (12/12) 4:05 PM CET (12/12)
Length of Visible Light 9h 51m
Length of Day
8h 42m
Waning Crescent, 1% of the Moon is Illuminated
Dec 12
Waning Crescent
Dec 13
New
Dec 20
First Quarter
Dec 28
Full
Jan 5
Last Quarter

Hourly Weather History & Observations

Time (CET) Temp. Windchill Dew Point Humidity Pressure Visibility Wind Dir Wind Speed Gust Speed Precip Events Conditions
12:55 AM -2.2 °F -27.6 °F -7.6 °F 78% 29.62 in - ENE 26.5 mph - N/A   Clear
1:00 AM -1 °F - -7 °F 63%  in 6 mi ENE 26.5 mph - -  
1:55 AM 1.4 °F -24.3 °F -5.8 °F 72% 29.62 in - NE 31.1 mph - N/A   Clear
2:55 AM -0.4 °F -26.0 °F -5.8 °F 78% 29.65 in - NNE 28.8 mph - N/A   Clear
3:55 AM -0.4 °F -26.4 °F -5.8 °F 78% 29.65 in - ENE 29.9 mph - N/A   Clear
4:00 AM -1 °F - -7 °F 67%  in 6 mi ENE 29.9 mph - -  
4:55 AM -0.4 °F -24.7 °F -5.8 °F 78% 29.65 in - NE 25.3 mph - N/A   Clear
5:55 AM -0.4 °F -25.6 °F -5.8 °F 78% 29.65 in - NE 27.6 mph - N/A   Clear
6:55 AM 1.4 °F -22.7 °F -5.8 °F 72% 29.65 in - NNE 26.5 mph - N/A   Clear
7:00 AM 1 °F - -5 °F 63%  in 9 mi NNE 26.5 mph - -  
7:55 AM 3.2 °F -19.0 °F -4.0 °F 72% 29.68 in - NE 23.0 mph - N/A   Clear
8:55 AM 5.0 °F -16.7 °F -2.2 °F 72% 29.68 in - NE 23.0 mph - N/A   Clear
9:55 AM 6.8 °F -14.3 °F -2.2 °F 67% 29.71 in - NE 23.0 mph - N/A   Clear
10:00 AM 7 °F - -2 °F 54%  in 31 mi NE 23.0 mph - -  
10:55 AM 6.8 °F -12.9 °F -4.0 °F 61% 29.71 in - NE 19.6 mph - N/A   Clear
11:55 AM -0.4 °F -22.3 °F -11.2 °F 60% 29.74 in - NNE 19.6 mph - N/A   Clear
12:55 PM 8.6 °F -9.5 °F -4.0 °F 57% 29.74 in - NE 17.3 mph - N/A   Clear
1:00 PM 9 °F - -4 °F 41%  in 31 mi NE 17.3 mph - -  
1:55 PM 8.6 °F -7.7 °F -4.0 °F 57% 29.74 in - NNE 13.8 mph - N/A   Clear
2:55 PM 8.6 °F -2.6 °F -5.8 °F 52% 29.74 in - North 6.9 mph - N/A   Clear
3:55 PM 10.4 °F 4.0 °F -4.0 °F 52% 29.74 in - Variable 3.5 mph - N/A   Clear
4:00 PM 10 °F - -5 °F 35%  in 25 mi 3.5 mph - -   Clear
4:55 PM 8.6 °F 2.0 °F -4.0 °F 57% 29.74 in - WSW 3.5 mph - N/A   Clear
5:55 PM 8.6 °F -1.3 °F -5.8 °F 52% 29.74 in - West 5.8 mph - N/A   Clear
6:55 PM 10.4 °F 0.8 °F -5.8 °F 48% 29.74 in - WNW 5.8 mph - N/A   Clear
7:00 PM 10 °F - -5 °F 34%  in 6 mi WNW 5.8 mph - -   Clear
7:55 PM 10.4 °F 4.0 °F -5.8 °F 48% 29.74 in - SSE 3.5 mph - N/A   Clear
8:55 PM 8.6 °F -3.7 °F -7.6 °F 48% 29.74 in - SW 8.1 mph - N/A   Clear
9:55 PM 8.6 °F -6.3 °F -7.6 °F 48% 29.74 in - SSW 11.5 mph - N/A   Clear
10:00 PM 9 °F - -7 °F 31%  in 6 mi SSW 11.5 mph - -   Clear
10:55 PM 8.6 °F -6.3 °F -9.4 °F 44% 29.74 in - South 11.5 mph - N/A   Clear
11:55 PM 6.8 °F -10.0 °F -11.2 °F 44% 29.74 in - South 13.8 mph - N/A   Clear